2016-09-29 00:06:45 r, 18.66m,0000000003Hz,0000151653c,0000000.329s, 025.7C,00002195
2016-09-29 00:16:45 r, 18.62m,0000000003Hz,0000147091c,0000000.319s, 025.7C,00002195
2016-09-29 00:26:46 r, 18.62m,0000000003Hz,0000146725c,0000000.318s, 025.4C,00002195
2016-09-29 00:36:45 r, 18.68m,0000000003Hz,0000154398c,0000000.335s, 025.4C,00002195
2016-09-29 00:46:45 r, 18.68m,0000000003Hz,0000155569c,0000000.338s, 025.4C,00002195
2016-09-29 00:56:46 r, 18.70m,0000000003Hz,0000157615c,0000000.342s, 025.4C,00002195
2016-09-29 01:06:45 r, 18.71m,0000000003Hz,0000159595c,0000000.346s, 025.4C,00002195
2016-09-29 01:16:45 r, 18.69m,0000000003Hz,0000156464c,0000000.340s, 025.1C,00002195
2016-09-29 01:26:45 r, 18.71m,0000000003Hz,0000159392c,0000000.346s, 025.1C,00002195
2016-09-29 01:36:45 r, 18.67m,0000000003Hz,0000153523c,0000000.333s, 025.1C,00002195
2016-09-29 01:46:45 r, 18.67m,0000000003Hz,0000152865c,0000000.332s, 025.1C,00002195
2016-09-29 01:56:45 r, 18.67m,0000000003Hz,0000152700c,0000000.331s, 025.1C,00002195
2016-09-29 02:06:45 r, 18.64m,0000000003Hz,0000148937c,0000000.323s, 024.8C,00002195
2016-09-29 02:16:46 r, 18.67m,0000000003Hz,0000153302c,0000000.333s, 024.8C,00002195
2016-09-29 02:26:45 r, 18.65m,0000000003Hz,0000149765c,0000000.325s, 024.8C,00002195
2016-09-29 02:36:45 r, 18.61m,0000000003Hz,0000145849c,0000000.317s, 024.8C,00002195
2016-09-29 02:46:45 r, 18.54m,0000000003Hz,0000136213c,0000000.296s, 024.8C,00002195
2016-09-29 02:56:47 r, 18.54m,0000000003Hz,0000137114c,0000000.298s, 024.4C,00002195
2016-09-29 03:06:45 r, 18.62m,0000000003Hz,0000147030c,0000000.319s, 024.4C,00002195
2016-09-29 03:16:45 r, 18.65m,0000000003Hz,0000150679c,0000000.327s, 024.4C,00002195
2016-09-29 03:26:47 r, 18.65m,0000000003Hz,0000149725c,0000000.325s, 024.4C,00002195
2016-09-29 03:36:45 r, 18.68m,0000000003Hz,0000154526c,0000000.335s, 024.4C,00002195
2016-09-29 03:46:45 r, 18.68m,0000000003Hz,0000155615c,0000000.338s, 024.4C,00002195
2016-09-29 03:56:46 r, 18.68m,0000000003Hz,0000155404c,0000000.337s, 024.4C,00002195
2016-09-29 04:06:45 r, 18.68m,0000000003Hz,0000153541c,0000000.333s, 024.1C,00002195
2016-09-29 04:16:45 r, 18.65m,0000000003Hz,0000148577c,0000000.322s, 024.1C,00002195
2016-09-29 04:26:45 r, 18.67m,0000000003Hz,0000151755c,0000000.329s, 024.1C,00002195
2016-09-29 04:36:45 r, 18.68m,0000000003Hz,0000153481c,0000000.333s, 024.1C,00002195
2016-09-29 04:46:46 r, 18.68m,0000000003Hz,0000152916c,0000000.332s, 024.1C,00002195
2016-09-29 04:56:46 r, 18.68m,0000000003Hz,0000154601c,0000000.336s, 024.1C,00002195
2016-09-29 05:06:45 r, 18.70m,0000000003Hz,0000156529c,0000000.340s, 024.1C,00002195
2016-09-29 05:16:45 r, 18.69m,0000000003Hz,0000155594c,0000000.338s, 023.8C,00002195
2016-09-29 05:26:45 r, 18.68m,0000000003Hz,0000154401c,0000000.335s, 023.8C,00002195
2016-09-29 05:36:46 r, 18.69m,0000000003Hz,0000155222c,0000000.337s, 023.8C,00002195
2016-09-29 05:46:45 r, 18.69m,0000000003Hz,0000155513c,0000000.337s, 023.8C,00002195
2016-09-29 05:56:45 r, 18.66m,0000000003Hz,0000149863c,0000000.325s, 023.8C,00002195
2016-09-29 06:06:46 r, 18.58m,0000000003Hz,0000141060c,0000000.306s, 023.8C,00002195
2016-09-29 06:16:46 r, 18.36m,0000000004Hz,0000114322c,0000000.248s, 023.8C,00002195
2016-09-29 06:26:46 r, 17.73m,0000000007Hz,0000064441c,0000000.140s, 023.8C,00002195
2016-09-29 06:36:46 r, 16.57m,0000000021Hz,0000022063c,0000000.048s, 023.5C,00002195
2016-09-29 06:46:46 r, 14.78m,0000000106Hz,0000004278c,0000000.009s, 023.5C,00002195
2016-09-29 06:56:46 r, 12.61m,0000000804Hz,0000000000c,0000000.000s, 023.5C,00002195
2016-09-29 07:06:46 r, 10.46m,0000005817Hz,0000000000c,0000000.000s, 023.5C,00002195
2016-09-29 07:16:46 r, 08.72m,0000028909Hz,0000000000c,0000000.000s, 023.5C,00002195
2016-09-29 07:26:46 r, 07.51m,0000088160Hz,0000000000c,0000000.000s, 023.2C,00002195
2016-09-29 07:36:46 r, 06.72m,0000182200Hz,0000000000c,0000000.000s, 023.5C,00002195
2016-09-29 07:46:46 r, 06.22m,0000292050Hz,0000000000c,0000000.000s, 023.5C,00002195
2016-09-29 07:56:46 r, 00.00m,0000402567Hz,0000000000c,0000000.000s, 023.8C,00002195
2016-09-29 08:06:46 r, 00.00m,0000516348Hz,0000000000c,0000000.000s, 023.8C,00002195
2016-09-29 08:16:46 r, 00.00m,0000563752Hz,0000000000c,0000000.000s, 024.1C,00002195
2016-09-29 08:26:46 r, 00.00m,0000563827Hz,0000000000c,0000000.000s, 024.1C,00002195
2016-09-29 08:36:46 r, 00.00m,0000563722Hz,0000000000c,0000000.000s, 024.1C,00002195
2016-09-29 08:46:46 r, 00.00m,0000563883Hz,0000000000c,0000000.000s, 024.4C,00002195
2016-09-29 08:56:46 r, 00.00m,0000563886Hz,0000000000c,0000000.000s, 025.1C,00002195
2016-09-29 09:06:46 r, 00.00m,0000564033Hz,0000000000c,0000000.000s, 026.4C,00002195
2016-09-29 09:16:46 r, 00.00m,0000564122Hz,0000000000c,0000000.000s, 028.0C,00002195
2016-09-29 09:26:46 r, 00.00m,0000564272Hz,0000000000c,0000000.000s, 029.6C,00002195
2016-09-29 09:36:46 r, 00.00m,0000564386Hz,0000000000c,0000000.000s, 030.9C,00002195
2016-09-29 09:46:46 r, 00.00m,0000564606Hz,0000000000c,0000000.000s, 032.2C,00002195
2016-09-29 09:56:46 r, 00.00m,0000564718Hz,0000000000c,0000000.000s, 033.1C,00002195
2016-09-29 10:06:46 r, 00.00m,0000564806Hz,0000000000c,0000000.000s, 034.1C,00002195
2016-09-29 10:16:46 r, 00.00m,0000564897Hz,0000000000c,0000000.000s, 035.4C,00002195
2016-09-29 10:26:46 r, 00.00m,0000564912Hz,0000000000c,0000000.000s, 036.0C,00002195
2016-09-29 10:36:46 r, 00.00m,0000564983Hz,0000000000c,0000000.000s, 036.7C,00002195
2016-09-29 10:46:46 r, 00.00m,0000565079Hz,0000000000c,0000000.000s, 037.3C,00002195
2016-09-29 10:56:48 r, 00.00m,0000565100Hz,0000000000c,0000000.000s, 037.7C,00002195
2016-09-29 11:06:46 r, 00.00m,0000565151Hz,0000000000c,0000000.000s, 038.0C,00002195
2016-09-29 11:16:46 r, 00.00m,0000565116Hz,0000000000c,0000000.000s, 038.3C,00002195
2016-09-29 11:26:46 r, 00.00m,0000565165Hz,0000000000c,0000000.000s, 038.6C,00002195
2016-09-29 11:36:46 r, 00.00m,0000565291Hz,0000000000c,0000000.000s, 039.3C,00002195
2016-09-29 11:46:46 r, 00.00m,0000565327Hz,0000000000c,0000000.000s, 040.2C,00002195
2016-09-29 11:56:46 r, 00.00m,0000565407Hz,0000000000c,0000000.000s, 040.9C,00002195
2016-09-29 12:06:46 r, 00.00m,0000565406Hz,0000000000c,0000000.000s, 041.2C,00002195
2016-09-29 12:16:46 r, 00.00m,0000565394Hz,0000000000c,0000000.000s, 041.9C,00002195
2016-09-29 12:26:47 r, 00.00m,0000565369Hz,0000000000c,0000000.000s, 041.9C,00002195
2016-09-29 12:36:46 r, 00.00m,0000565536Hz,0000000000c,0000000.000s, 041.9C,00002195
2016-09-29 12:46:46 r, 00.00m,0000565487Hz,0000000000c,0000000.000s, 042.2C,00002195
2016-09-29 12:56:46 r, 00.00m,0000565525Hz,0000000000c,0000000.000s, 042.5C,00002195
2016-09-29 13:06:46 r, 00.00m,0000565521Hz,0000000000c,0000000.000s, 042.8C,00002195
2016-09-29 13:16:46 r, 00.00m,0000565469Hz,0000000000c,0000000.000s, 042.8C,00002195
2016-09-29 13:26:46 r, 00.00m,0000565531Hz,0000000000c,0000000.000s, 043.5C,00002195
2016-09-29 13:36:47 r, 00.00m,0000565554Hz,0000000000c,0000000.000s, 042.8C,00002195
2016-09-29 13:46:46 r, 00.00m,0000565450Hz,0000000000c,0000000.000s, 043.1C,00002195
2016-09-29 13:56:46 r, 00.00m,0000565539Hz,0000000000c,0000000.000s, 043.5C,00002195
2016-09-29 14:06:46 r, 00.00m,0000565557Hz,0000000000c,0000000.000s, 043.1C,00002195
2016-09-29 14:16:46 r, 00.00m,0000565441Hz,0000000000c,0000000.000s, 043.1C,00002195
2016-09-29 14:26:46 r, 00.00m,0000565377Hz,0000000000c,0000000.000s, 042.2C,00002195
2016-09-29 14:36:46 r, 00.00m,0000565400Hz,0000000000c,0000000.000s, 041.5C,00002195
2016-09-29 14:46:46 r, 00.00m,0000565411Hz,0000000000c,0000000.000s, 042.2C,00002195
2016-09-29 14:56:46 r, 00.00m,0000565452Hz,0000000000c,0000000.000s, 042.5C,00002195
2016-09-29 15:06:46 r, 00.00m,0000565527Hz,0000000000c,0000000.000s, 043.5C,00002195
2016-09-29 15:16:46 r, 00.00m,0000565533Hz,0000000000c,0000000.000s, 043.5C,00002195
2016-09-29 15:26:48 r, 00.00m,0000565548Hz,0000000000c,0000000.000s, 043.8C,00002195
2016-09-29 15:36:46 r, 00.00m,0000565438Hz,0000000000c,0000000.000s, 042.8C,00002195
2016-09-29 15:46:46 r, 00.00m,0000565281Hz,0000000000c,0000000.000s, 041.9C,00002195
2016-09-29 15:56:46 r, 00.00m,0000565377Hz,0000000000c,0000000.000s, 042.2C,00002195
2016-09-29 16:06:46 r, 00.00m,0000565251Hz,0000000000c,0000000.000s, 041.9C,00002195
2016-09-29 16:16:46 r, 00.00m,0000565173Hz,0000000000c,0000000.000s, 041.5C,00002195
2016-09-29 16:26:46 r, 00.00m,0000565219Hz,0000000000c,0000000.000s, 041.2C,00002195
2016-09-29 16:36:47 r, 00.00m,0000565166Hz,0000000000c,0000000.000s, 040.9C,00002195
2016-09-29 16:46:46 r, 00.00m,0000565117Hz,0000000000c,0000000.000s, 040.6C,00002195
2016-09-29 16:56:46 r, 00.00m,0000565033Hz,0000000000c,0000000.000s, 040.2C,00002195
2016-09-29 17:06:48 r, 00.00m,0000565047Hz,0000000000c,0000000.000s, 039.3C,00002195
2016-09-29 17:16:46 r, 00.00m,0000564883Hz,0000000000c,0000000.000s, 038.0C,00002195
2016-09-29 17:26:46 r, 00.00m,0000564736Hz,0000000000c,0000000.000s, 036.7C,00002195
2016-09-29 17:36:46 r, 00.00m,0000564737Hz,0000000000c,0000000.000s, 036.7C,00002195
2016-09-29 17:46:46 r, 00.00m,0000564792Hz,0000000000c,0000000.000s, 036.7C,00002195
2016-09-29 17:56:46 r, 00.00m,0000564768Hz,0000000000c,0000000.000s, 037.0C,00002195
2016-09-29 18:06:46 r, 00.00m,0000564775Hz,0000000000c,0000000.000s, 036.7C,00002195
2016-09-29 18:16:46 r, 00.00m,0000564747Hz,0000000000c,0000000.000s, 036.7C,00002195
2016-09-29 18:26:46 r, 00.00m,0000547010Hz,0000000000c,0000000.000s, 036.4C,00002195
2016-09-29 18:36:46 r, 00.00m,0000431278Hz,0000000000c,0000000.000s, 036.0C,00002195
2016-09-29 18:46:46 r, 06.11m,0000321238Hz,0000000000c,0000000.000s, 035.4C,00002195
2016-09-29 18:56:46 r, 06.56m,0000211262Hz,0000000000c,0000000.000s, 034.4C,00002195
2016-09-29 19:06:48 r, 07.27m,0000110457Hz,0000000000c,0000000.000s, 033.8C,00002195
2016-09-29 19:16:46 r, 08.36m,0000040566Hz,0000000000c,0000000.000s, 032.8C,00002195
2016-09-29 19:26:46 r, 10.03m,0000008650Hz,0000000000c,0000000.000s, 032.5C,00002195
2016-09-29 19:36:47 r, 12.13m,0000001251Hz,0000000000c,0000000.000s, 031.9C,00002195
2016-09-29 19:46:46 r, 14.28m,0000000172Hz,0000000000c,0000000.000s, 031.5C,00002195
2016-09-29 19:56:47 r, 16.19m,0000000030Hz,0000015532c,0000000.034s, 031.5C,00002195
2016-09-29 20:06:46 r, 17.44m,0000000009Hz,0000049178c,0000000.107s, 031.2C,00002195
2016-09-29 20:16:46 r, 18.08m,0000000005Hz,0000089393c,0000000.194s, 030.9C,00002195
2016-09-29 20:26:46 r, 18.36m,0000000004Hz,0000114237c,0000000.248s, 030.6C,00002195
2016-09-29 20:36:46 r, 18.44m,0000000004Hz,0000123983c,0000000.269s, 030.6C,00002195
2016-09-29 20:46:46 r, 18.47m,0000000004Hz,0000127986c,0000000.278s, 030.2C,00002195
2016-09-29 20:56:46 r, 18.47m,0000000003Hz,0000127583c,0000000.277s, 029.9C,00002195
2016-09-29 21:06:46 r, 18.46m,0000000004Hz,0000125861c,0000000.273s, 029.6C,00002195
2016-09-29 21:16:47 r, 18.47m,0000000004Hz,0000127599c,0000000.277s, 029.3C,00002195
2016-09-29 21:26:46 r, 18.49m,0000000004Hz,0000128651c,0000000.279s, 029.0C,00002195
2016-09-29 21:36:47 r, 18.52m,0000000003Hz,0000132490c,0000000.288s, 028.6C,00002195
2016-09-29 21:46:46 r, 18.56m,0000000003Hz,0000137394c,0000000.298s, 028.6C,00002195
2016-09-29 21:56:46 r, 18.57m,0000000003Hz,0000139192c,0000000.302s, 028.3C,00002195
2016-09-29 22:06:46 r, 18.54m,0000000003Hz,0000135674c,0000000.294s, 028.3C,00002195
2016-09-29 22:16:47 r, 18.56m,0000000003Hz,0000137326c,0000000.298s, 028.3C,00002195
2016-09-29 22:26:46 r, 18.57m,0000000003Hz,0000139260c,0000000.302s, 028.3C,00002195
2016-09-29 22:36:46 r, 18.58m,0000000003Hz,0000141157c,0000000.306s, 028.0C,00002195
2016-09-29 22:46:46 r, 18.60m,0000000003Hz,0000142404c,0000000.309s, 028.0C,00002195
2016-09-29 22:56:47 r, 18.60m,0000000003Hz,0000143074c,0000000.310s, 027.7C,00002195
2016-09-29 23:06:46 r, 18.61m,0000000004Hz,0000145041c,0000000.315s, 027.7C,00002195
2016-09-29 23:16:47 r, 18.61m,0000000003Hz,0000144977c,0000000.315s, 027.3C,00002195
2016-09-29 23:26:47 r, 18.62m,0000000004Hz,0000145936c,0000000.317s, 027.3C,00002195
2016-09-29 23:36:49 r, 18.63m,0000000003Hz,0000146894c,0000000.319s, 027.0C,00002195
2016-09-29 23:46:46 r, 18.64m,0000000003Hz,0000147681c,0000000.320s, 027.0C,00002195
2016-09-29 23:56:46 r, 18.63m,0000000003Hz,0000146925c,0000000.319s, 027.0C,00002195
